Location: Unspecified
(0.0000°N, 0.0000°E)
Time: 16:20:03
(UTC+00:00)

N. Korean satellite - Pass Details

Date: 24 September 2020
Orbit: 455 x 503 km, 97.2° (Epoch: 19 September)

Event Time Altitude Azimuth Distance (km) Brightness Sun altitude
Rises 04:23:56 0° 42° (NE) 2,520 10.8 -22.0°
Reaches altitude 10° 04:26:47 10° 68° (ENE) 1,634 10.2 -21.3°
Maximum altitude 04:28:41 14° 101° (E) 1,394 9.9 -20.8°
Drops below altitude 10° 04:30:35 10° 134° (SE) 1,624 9.8 -20.3°
Sets 04:33:24 0° 160° (SSE) 2,493 10.4 -19.6°
